Wind_Speed
43 44 44 45 45 45 46 46 46 47 48 49 50 51 52 53 54 55 56 57 58 59 60 61 62 63 63 64 65 66 66 67 67 67 67 67 67 66 65 64 63 61 60 58 57 57 56 55 54 53 54 54
45 45 46 47 47 47 47 47 48 49 50 51 51 53 53 54 55 56 57 59 59 60 61 62 63 63 64 65 66 66 66 66 66 66 66 66 66 66 64 63 62 61 59 57 56 56 55 54 54 53 53 53
47 47 48 48 48 48 48 49 50 50 51 52 53 54 55 56 57 58 59 60 60 61 62 62 63 64 65 66 66 66 66 65 64 64 63 63 63 63 63 63 61 60 58 57 56 55 54 54 53 53 53 53
49 50 50 50 50 50 50 51 52 53 54 54 55 56 57 58 59 59 60 60 61 62 62 63 64 64 65 65 65 64 63 63 62 62 61 60 60 60 60 61 60 60 58 57 56 55 54 54 53 53 53 53
51 51 51 51 51 52 52 53 54 55 56 56 57 58 59 60 60 60 61 61 61 62 62 63 63 63 63 63 63 62 61 60 59 59 58 58 57 57 57 58 59 59 58 57 56 55 55 54 53 53 53 53
52 53 53 53 53 53 54 55 56 57 57 58 59 60 60 61 61 61 61 61 61 61 61 62 62 62 61 61 60 59 58 57 56 55 54 54 54 54 55 55 56 57 57 57 56 55 55 54 54 54 53 53
54 54 54 54 54 55 56 57 58 59 59 60 61 61 62 62 62 61 61 61 60 60 60 61 60 60 59 58 57 56 55 54 53 51 51 51 50 51 51 52 53 54 55 56 56 55 55 54 54 54 54 54
55 55 55 56 57 58 58 59 60 60 61 62 62 63 63 62 62 61 61 60 60 60 60 59 59 58 56 55 54 52 51 50 49 48 47 47 46 47 47 48 49 50 51 52 53 54 54 54 53 53 53 54
56 56 57 58 59 60 60 61 61 62 62 63 63 63 63 62 62 61 60 60 60 60 59 58 57 56 54 52 50 48 47 47 46 45 44 44 44 43 43 44 45 46 47 48 50 51 52 52 52 52 53 53
58 58 59 60 61 61 62 62 63 63 63 64 63 63 63 62 61 61 60 60 60 59 59 58 56 54 52 50 48 46 45 44 44 44 44 44 43 43 43 42 43 43 44 45 46 47 49 50 51 51 52 52
60 60 61 61 62 62 62 63 63 64 64 63 63 63 62 61 61 60 60 59 59 59 57 56 55 53 51 49 47 45 44 44 44 44 45 45 45 44 44 43 43 43 43 43 44 45 46 47 49 50 51 52
61 62 62 62 62 62 63 63 64 64 64 63 63 62 62 61 60 60 59 59 58 57 55 55 54 52 50 49 47 46 45 45 45 45 46 46 46 46 45 45 44 43 43 43 43 44 45 45 46 48 49 50
62 62 62 62 63 63 64 64 64 63 63 62 62 61 61 61 60 60 59 58 56 55 54 54 53 52 51 50 49 48 47 47 47 47 47 47 47 47 47 47 46 46 45 44 44 44 44 45 45 46 47 48
62 62 63 63 64 64 64 63 63 63 62 61 61 61 61 60 60 59 58 57 56 55 54 54 54 53 52 51 51 49 49 49 48 48 48 48 47 47 47 48 48 48 47 47 46 46 45 46 46 46 46 47
62 63 63 63 64 64 63 63 62 62 61 61 60 60 60 60 59 59 58 58 56 55 54 54 54 54 54 53 53 52 51 50 50 49 48 49 48 48 48 48 49 49 48 48 48 48 47 47 47 47 47 47
63 63 63 64 64 63 63 63 62 61 61 60 60 59 59 59 59 59 59 58 57 55 55 54 54 54 54 55 55 54 53 52 51 50 49 49 49 49 49 49 50 50 50 49 50 50 49 49 48 48 49 49
63 64 64 64 63 63 62 62 61 61 60 59 58 58 58 59 59 59 59 59 57 56 55 55 54 54 55 56 56 56 56 55 54 52 51 50 50 50 50 50 51 52 51 51 51 52 52 51 50 50 50 50
64 64 64 63 62 62 61 60 60 59 58 57 57 58 59 59 60 60 60 59 58 57 56 56 56 56 56 57 58 58 59 58 57 56 55 54 53 52 52 52 52 53 54 54 54 54 54 54 53 53 52 52
64 63 62 62 61 60 59 58 57 57 56 57 57 58 59 60 60 61 61 60 58 58 57 57 57 57 57 58 59 60 61 61 61 60 59 58 57 57 56 55 55 55 55 56 56 56 57 57 57 56 56 56
62 61 60 59 59 58 57 57 56 56 57 57 58 59 60 60 61 61 61 61 60 59 58 58 58 59 59 60 60 61 61 62 63 63 63 63 62 61 60 60 59 58 58 58 58 59 59 60 60 60 59 59
60 59 58 58 57 57 57 57 57 57 57 58 59 59 60 61 61 61 62 62 61 61 60 60 60 60 61 61 61 62 62 63 64 65 65 65 65 65 64 63 63 63 62 62 61 61 61 62 63 62 62 63
58 57 57 57 57 57 57 58 58 58 59 59 59 60 61 61 62 63 63 63 64 63 62 62 61 61 61 62 62 62 63 63 64 65 66 65 66 67 67 65 65 65 65 65 64 63 63 64 65 65 65 65
57 57 57 56 57 57 57 58 58 59 60 61 61 62 63 63 64 64 64 64 64 64 63 62 62 62 62 62 62 63 63 64 65 65 66 66 66 67 67 67 67 67 67 67 67 66 66 66 66 67 67 67
57 57 57 57 57 57 58 59 59 60 61 62 63 64 64 64 65 65 65 65 64 64 63 63 62 62 63 63 63 64 64 65 66 67 67 68 68 68 68 69 69 69 69 69 69 69 68 68 68 68 69 69
57 57 57 57 58 58 59 60 61 62 62 63 64 64 63 63 62 62 63 63 64 65 65 65 64 64 64 64 65 65 66 66 67 68 69 70 70 70 70 70 71 72 72 72 72 71 71 70 71 71 71 71
58 58 58 58 59 60 61 62 63 63 63 63 63 63 62 62 61 61 62 62 63 64 65 66 66 66 66 66 67 67 67 68 68 69 71 72 72 73 73 72 73 74 75 75 75 75 74 73 73 73 74 74
59 59 59 60 61 62 63 63 63 64 64 63 63 63 63 63 62 62 63 63 63 64 65 66 67 68 68 68 69 69 69 69 70 70 72 73 74 75 75 75 75 76 77 78 78 78 78 76 75 74 75 76
60 60 61 62 63 64 64 64 64 64 64 64 64 63 63 64 64 64 64 64 64 65 66 67 68 68 69 69 70 70 70 70 71 71 72 73 74 76 76 76 76 77 78 79 80 81 80 80 79 76 75 76
61 62 62 63 64 64 64 64 64 64 64 63 63 64 64 65 65 65 65 66 66 67 68 68 68 69 69 69 70 70 71 71 71 72 72 73 74 75 76 76 76 76 77 78 80 82 82 83 82 80 79 77
63 63 64 65 65 64 64 64 64 64 64 63 64 64 65 66 67 67 68 68 69 69 69 69 69 69 69 69 70 70 71 71 72 72 73 74 75 76 76 77 77 76 77 78 79 81 83 84 85 84 83 81
64 65 65 66 65 66 66 65 65 64 65 65 66 66 67 68 69 70 70 71 71 70 70 69 69 69 69 69 69 70 71 71 72 73 74 75 76 77 78 79 78 78 78 79 79 80 82 84 85 86 85 85
Wind_Direction
284 284 284 284 284 284 285 285 285 285 285 284 283 283 283 283 283 283 283 284 283 283 283 283 282 282 282 281 280 280 279 278 277 276 275 274 272 271 269 268 267 266 265 264 263 261 260 258 257 255 254 254
284 284 284 283 284 284 285 285 285 284 284 283 283 283 284 284 285 285 285 285 285 285 284 284 284 284 283 282 281 280 278 277 275 274 273 272 271 270 268 266 265 263 262 261 260 259 257 256 254 253 251 251
284 283 283 284 284 285 285 285 284 283 283 283 284 285 285 286 286 287 287 286 286 286 286 286 286 285 285 283 282 280 278 277 275 273 271 270 269 268 267 265 263 261 259 258 257 256 255 254 252 251 249 248
284 284 284 285 285 285 285 284 284 284 284 284 285 286 287 287 287 288 287 287 287 287 287 287 287 286 285 283 282 280 278 276 274 272 270 268 266 265 264 263 262 260 258 256 254 253 253 252 250 249 248 247
284 285 285 286 286 285 284 284 284 284 285 286 287 288 288 288 288 288 287 287 287 287 288 287 287 286 284 283 281 279 277 275 273 271 269 267 265 263 262 261 260 259 258 256 254 252 251 250 249 247 246 245
284 285 286 285 285 284 283 283 284 285 286 287 288 288 288 288 288 288 288 287 287 287 287 287 286 284 283 282 280 278 276 273 271 270 268 266 265 263 261 260 259 258 257 256 254 252 250 249 248 246 245 244
285 285 285 285 284 284 284 284 285 286 287 288 288 288 288 288 288 288 287 287 287 287 287 286 285 283 282 280 278 276 274 272 270 269 267 266 265 263 262 260 259 258 257 256 255 253 251 249 247 246 244 243
286 286 285 284 284 284 284 285 286 287 287 288 288 288 287 287 287 287 287 287 287 287 286 285 284 283 281 278 276 274 273 271 270 268 267 266 264 263 262 261 260 259 258 257 255 254 252 250 248 246 244 243
286 285 285 284 284 284 284 285 286 286 287 287 286 286 286 286 286 286 286 287 286 286 285 284 283 282 279 277 274 272 271 271 270 269 268 267 265 264 262 261 260 259 259 258 257 255 253 251 250 248 245 243
285 284 284 284 284 284 285 285 286 286 286 286 286 286 286 286 286 286 286 286 285 285 285 284 282 280 278 275 272 271 270 270 270 270 269 269 268 266 264 262 261 259 259 258 257 256 254 253 251 249 247 245
285 284 284 284 284 285 285 285 285 285 285 285 286 286 286 286 286 286 285 285 285 285 284 283 281 279 276 273 271 270 269 270 271 271 271 271 270 269 267 265 263 261 259 258 257 256 255 254 252 251 249 247
284 284 284 284 284 284 284 284 284 285 285 285 286 286 286 286 285 285 285 285 285 284 284 282 280 277 274 272 270 270 270 270 271 271 271 271 271 271 270 268 266 264 262 260 258 257 256 255 253 252 250 249
284 284 284 283 283 283 284 284 285 285 285 286 286 286 285 285 284 284 284 284 284 283 282 280 278 276 273 271 270 269 270 271 271 271 271 271 270 270 270 270 268 267 265 263 261 258 257 255 254 253 251 250
283 283 283 283 283 284 284 285 285 285 285 285 285 285 284 284 284 284 284 283 282 282 281 280 278 274 272 270 269 269 270 271 271 271 270 270 269 269 269 269 269 268 267 265 263 260 259 257 256 254 253 252
282 282 283 283 284 284 285 285 285 285 284 284 284 284 283 284 284 284 283 282 282 281 280 280 278 275 272 270 269 268 268 270 270 270 270 269 269 268 268 268 268 267 267 266 265 262 260 258 257 256 255 254
282 283 283 284 284 285 285 284 284 284 283 283 283 283 283 283 283 283 282 282 282 282 281 280 278 276 272 270 269 268 268 269 269 269 269 269 269 268 268 267 267 266 266 265 265 264 262 260 258 257 256 256
283 283 284 284 284 284 284 284 283 283 283 283 283 283 283 282 282 282 282 283 283 282 281 280 279 277 274 271 269 268 268 268 269 268 269 269 269 269 268 268 267 266 265 264 264 263 263 261 260 258 257 256
283 283 284 283 283 283 283 283 283 283 283 283 282 282 282 282 282 282 283 283 283 282 281 280 279 278 276 273 271 270 269 269 269 269 269 269 269 269 269 268 268 266 266 265 263 263 262 262 261 260 258 257
283 283 283 283 283 283 283 282 282 282 282 281 281 281 281 281 282 283 283 283 283 282 281 280 279 278 276 274 272 271 270 270 270 270 270 270 270 270 270 269 268 267 266 265 264 263 262 262 261 261 260 259
282 282 282 282 282 282 281 281 281 281 280 280 280 280 281 281 282 282 283 283 283 282 281 280 278 277 276 275 274 273 272 271 271 271 271 271 271 270 271 270 269 268 266 265 264 263 262 262 261 260 260 260
281 281 281 281 281 281 280 280 280 279 279 279 280 280 281 281 282 282 282 282 282 282 281 280 279 278 277 276 275 274 273 272 272 271 271 271 271 271 270 270 270 269 267 266 265 264 263 262 261 260 260 260
281 281 281 281 280 280 280 280 280 280 280 280 280 280 280 281 281 281 282 282 282 282 281 280 280 279 278 277 276 275 274 274 273 272 271 272 272 271 270 270 269 269 268 266 265 264 263 262 261 261 260 259
281 280 280 280 279 279 280 280 281 281 281 281 281 281 281 281 282 282 282 282 282 282 282 282 281 280 280 279 278 277 277 276 275 274 273 272 272 272 271 271 270 269 268 267 266 265 264 263 262 261 260 260
280 279 279 279 279 279 280 280 281 282 282 283 283 283 283 284 284 284 284 284 284 283 283 282 282 282 281 280 280 279 279 278 278 276 275 274 274 273 272 272 271 270 268 267 267 266 265 265 264 263 262 261
279 279 279 279 279 280 280 280 281 282 282 282 283 283 284 284 285 285 285 285 284 284 284 283 282 282 281 280 280 279 279 279 278 278 277 276 275 274 273 273 273 272 270 268 268 267 267 266 266 265 264 263
279 279 279 279 279 279 279 280 281 281 281 281 282 282 283 282 282 282 282 282 282 282 282 282 282 281 280 279 279 278 278 277 277 277 277 276 276 275 274 273 273 272 271 270 269 268 267 267 267 266 265 264
279 279 279 279 279 279 280 281 281 281 281 281 282 282 282 282 281 281 280 280 281 281 281 281 281 281 280 280 279 278 277 276 276 276 276 276 276 275 275 274 274 273 272 272 271 269 268 267 267 267 267 266
280 280 280 280 281 281 282 282 281 282 282 282 283 283 284 284 283 283 283 283 283 283 283 283 282 282 281 281 281 279 278 278 277 276 276 275 275 275 275 274 274 274 273 272 272 271 269 268 267 266 266 266
280 280 280 280 281 282 282 282 283 283 284 285 286 286 287 287 288 288 287 287 287 286 286 285 285 284 283 283 283 282 281 280 279 278 277 277 276 275 275 274 274 274 274 273 272 272 271 270 268 267 266 265
280 280 280 280 280 280 280 281 282 283 284 285 286 287 288 290 290 290 290 289 289 288 287 287 286 285 285 285 284 284 283 283 282 281 281 280 278 277 276 275 275 274 274 274 273 273 272 271 270 268 267 266
280 280 280 281 281 281 281 282 283 284 285 285 286 288 289 290 290 290 290 289 289 288 288 287 287 287 286 286 286 285 285 284 284 283 283 282 281 280 279 278 277 276 275 274 274 273 273 272 272 270 269 268
Height
5768 5767 5766 5765 5764 5764 5764 5763 5763 5762 5761 5761 5760 5759 5759 5758 5757 5757 5756 5756 5755 5754 5753 5753 5752 5751 5750 5749 5749 5748 5747 5746 5746 5745 5744 5744 5744 5744 5744 5744 5745 5746 5746 5746 5746 5747 5748 5749 5750 5751 5751 5752
5762 5762 5761 5760 5760 5759 5759 5758 5757 5757 5756 5755 5754 5753 5752 5752 5751 5750 5749 5749 5748 5747 5746 5745 5744 5743 5742 5742 5741 5740 5739 5739 5738 5737 5736 5736 5736 5735 5736 5736 5737 5738 5739 5739 5739 5740 5741 5742 5743 5744 5745 5746
5757 5756 5756 5755 5755 5754 5754 5753 5751 5750 5749 5748 5747 5747 5746 5745 5744 5743 5742 5741 5740 5739 5738 5737 5736 5735 5734 5733 5732 5732 5731 5730 5730 5729 5729 5728 5728 5728 5728 5728 5729 5730 5731 5732 5733 5733 5734 5735 5737 5738 5739 5740
5752 5751 5751 5750 5749 5749 5748 5746 5745 5744 5743 5742 5741 5740 5739 5738 5737 5736 5734 5733 5732 5732 5731 5729 5728 5727 5726 5725 5724 5723 5722 5722 5722 5721 5721 5721 5721 5721 5720 5720 5721 5722 5723 5725 5726 5726 5727 5728 5730 5731 5732 5734
5747 5746 5745 5744 5744 5742 5741 5739 5738 5737 5736 5735 5734 5733 5732 5731 5729 5728 5727 5726 5725 5724 5723 5722 5721 5720 5718 5717 5716 5715 5715 5714 5714 5713 5713 5713 5714 5714 5713 5713 5713 5714 5715 5717 5718 5719 5720 5722 5723 5725 5726 5727
5741 5740 5740 5739 5737 5736 5735 5733 5732 5731 5729 5728 5727 5726 5725 5723 5722 5721 5720 5719 5718 5717 5716 5715 5714 5713 5711 5710 5709 5708 5707 5707 5706 5706 5706 5706 5706 5707 5707 5707 5707 5707 5708 5709 5711 5712 5714 5715 5716 5718 5720 5721
5736 5735 5734 5732 5731 5729 5728 5726 5725 5724 5723 5721 5720 5719 5718 5716 5715 5714 5713 5712 5711 5710 5709 5707 5706 5706 5705 5703 5702 5702 5700 5700 5700 5700 5699 5699 5700 5700 5700 5700 5700 5701 5701 5702 5703 5705 5707 5708 5710 5711 5713 5715
5730 5729 5727 5726 5724 5723 5721 5720 5719 5718 5717 5715 5714 5712 5711 5709 5708 5707 5706 5705 5703 5702 5701 5700 5699 5699 5698 5697 5696 5696 5695 5694 5694 5694 5694 5693 5694 5694 5694 5694 5694 5695 5695 5695 5696 5698 5700 5701 5703 5705 5707 5708
5724 5722 5721 5719 5717 5716 5715 5714 5713 5711 5710 5708 5707 5706 5704 5703 5702 5701 5699 5698 5697 5696 5695 5693 5692 5692 5692 5691 5690 5690 5689 5688 5688 5688 5688 5688 5688 5688 5689 5689 5689 5689 5689 5690 5690 5691 5693 5694 5696 5698 5700 5702
5717 5716 5714 5713 5711 5710 5709 5707 5706 5704 5703 5701 5700 5699 5698 5697 5695 5694 5693 5692 5690 5689 5688 5687 5686 5686 5685 5685 5685 5684 5684 5684 5683 5683 5683 5682 5682 5683 5683 5683 5684 5684 5684 5684 5684 5685 5686 5687 5689 5691 5693 5695
5711 5709 5708 5707 5705 5704 5702 5700 5699 5697 5696 5694 5693 5692 5691 5690 5689 5687 5686 5685 5684 5683 5682 5681 5680 5680 5679 5679 5679 5679 5679 5679 5678 5678 5678 5677 5677 5677 5677 5678 5678 5679 5679 5679 5680 5680 5680 5681 5683 5684 5686 5688
5704 5703 5702 5701 5699 5697 5695 5693 5691 5690 5688 5687 5686 5685 5684 5683 5682 5681 5680 5679 5678 5677 5676 5675 5674 5673 5673 5673 5673 5673 5673 5673 5673 5673 5673 5672 5672 5672 5672 5672 5673 5673 5674 5674 5675 5675 5675 5676 5677 5678 5680 5682
5698 5697 5695 5694 5692 5690 5688 5686 5684 5683 5681 5680 5679 5678 5677 5676 5675 5674 5673 5672 5672 5671 5669 5668 5668 5667 5667 5667 5667 5667 5667 5667 5668 5668 5667 5667 5667 5667 5666 5667 5667 5668 5668 5669 5669 5670 5670 5671 5671 5672 5674 5675
5692 5690 5688 5686 5684 5683 5681 5679 5678 5676 5675 5674 5672 5671 5670 5669 5668 5668 5667 5666 5665 5664 5663 5662 5661 5661 5660 5660 5660 5661 5661 5661 5661 5662 5661 5661 5661 5661 5661 5661 5661 5662 5662 5663 5663 5664 5665 5666 5666 5667 5668 5669
5685 5683 5681 5679 5678 5676 5674 5673 5671 5670 5668 5667 5666 5665 5663 5662 5662 5661 5660 5659 5658 5657 5657 5656 5655 5654 5654 5654 5653 5654 5654 5654 5654 5655 5655 5655 5655 5656 5656 5656 5655 5656 5657 5657 5657 5658 5659 5660 5661 5662 5663 5664
5678 5676 5674 5672 5671 5669 5668 5666 5665 5663 5662 5660 5659 5658 5657 5655 5654 5654 5653 5652 5651 5651 5650 5649 5648 5647 5647 5647 5647 5647 5647 5647 5648 5648 5648 5649 5649 5649 5650 5650 5650 5650 5651 5651 5651 5651 5653 5654 5655 5656 5657 5658
5671 5669 5667 5666 5664 5662 5661 5660 5658 5657 5655 5654 5653 5651 5650 5648 5647 5647 5646 5645 5645 5644 5643 5643 5642 5641 5640 5639 5639 5640 5640 5640 5640 5641 5641 5641 5642 5643 5643 5644 5644 5643 5644 5645 5645 5645 5646 5648 5649 5650 5651 5652
5664 5663 5661 5659 5657 5656 5654 5653 5652 5650 5649 5648 5646 5644 5643 5642 5641 5640 5639 5638 5638 5637 5636 5635 5635 5634 5632 5632 5632 5632 5632 5633 5633 5633 5634 5634 5634 5635 5636 5637 5637 5637 5638 5638 5639 5640 5640 5641 5642 5643 5644 5645
5658 5656 5654 5653 5651 5650 5648 5647 5645 5644 5642 5641 5639 5638 5636 5635 5634 5633 5632 5631 5630 5630 5629 5628 5627 5626 5625 5625 5624 5624 5624 5625 5625 5625 5626 5626 5626 5627 5628 5629 5630 5630 5631 5631 5632 5633 5634 5635 5635 5636 5637 5638
5651 5650 5648 5647 5645 5644 5642 5641 5639 5637 5636 5634 5633 5631 5630 5628 5627 5626 5625 5624 5623 5622 5621 5621 5620 5619 5618 5617 5617 5617 5616 5616 5616 5617 5618 5618 5618 5619 5620 5620 5621 5622 5622 5624 5625 5626 5627 5627 5628 5629 5631 5631
5644 5643 5642 5640 5639 5637 5636 5634 5633 5631 5629 5628 5626 5625 5623 5622 5620 5619 5618 5617 5616 5615 5614 5613 5612 5611 5610 5610 5609 5609 5608 5608 5608 5608 5609 5609 5609 5610 5611 5612 5613 5613 5614 5615 5617 5618 5619 5619 5620 5622 5623 5624
5638 5637 5636 5634 5632 5631 5629 5627 5626 5624 5623 5621 5620 5618 5617 5615 5613 5612 5611 5609 5608 5608 5607 5606 5605 5604 5602 5602 5601 5601 5600 5600 5599 5599 5600 5601 5600 5600 5602 5603 5604 5604 5605 5606 5608 5610 5610 5611 5612 5613 5614 5615
5632 5631 5629 5627 5626 5624 5622 5620 5619 5617 5615 5614 5612 5611 5609 5607 5606 5605 5603 5602 5601 5600 5599 5598 5597 5596 5594 5593 5593 5592 5592 5591 5590 5590 5590 5591 5591 5591 5591 5592 5594 5594 5595 5597 5599 5600 5601 5602 5603 5604 5605 5607
5625 5624 5622 5621 5619 5618 5615 5614 5612 5610 5608 5606 5604 5602 5600 5599 5597 5596 5595 5593 5592 5591 5591 5590 5589 5588 5586 5585 5585 5584 5583 5582 5581 5581 5580 5581 5581 5582 5582 5582 5583 5584 5585 5587 5589 5590 5591 5593 5594 5594 5595 5597
5619 5617 5616 5614 5613 5611 5609 5607 5605 5603 5601 5599 5597 5595 5593 5591 5590 5588 5587 5585 5583 5582 5581 5581 5580 5579 5579 5577 5576 5576 5575 5574 5573 5572 5571 5571 5571 5572 5573 5573 5572 5572 5574 5576 5578 5579 5581 5583 5583 5584 5586 5586
5612 5610 5609 5607 5606 5604 5602 5600 5598 5596 5594 5592 5590 5588 5586 5584 5583 5581 5579 5577 5576 5574 5573 5572 5571 5570 5570 5569 5568 5567 5567 5566 5565 5563 5562 5561 5561 5561 5562 5563 5563 5562 5562 5564 5565 5567 5570 5572 5573 5573 5574 5575
5605 5603 5601 5599 5598 5596 5594 5592 5590 5588 5586 5585 5583 5581 5579 5577 5575 5573 5571 5569 5567 5566 5564 5563 5562 5561 5560 5559 5558 5558 5558 5557 5556 5555 5553 5552 5551 5551 5551 5552 5553 5552 5552 5552 5553 5554 5557 5560 5562 5563 5563 5563
5597 5595 5593 5591 5589 5587 5585 5583 5582 5580 5578 5576 5574 5572 5570 5568 5566 5564 5562 5560 5559 5557 5555 5554 5553 5552 5551 5550 5548 5548 5548 5547 5546 5545 5544 5543 5542 5541 5541 5542 5542 5542 5542 5541 5541 5541 5544 5546 5548 5552 5552 5552
5589 5587 5585 5583 5581 5579 5576 5574 5572 5571 5570 5568 5565 5563 5561 5559 5557 5555 5553 5551 5549 5548 5546 5545 5543 5542 5541 5540 5538 5537 5537 5537 5536 5535 5534 5533 5532 5532 5532 5531 5532 5533 5532 5531 5530 5530 5530 5531 5533 5538 5540 5541
5581 5578 5576 5574 5572 5571 5569 5567 5565 5563 5561 5559 5557 5555 5553 5551 5548 5546 5544 5542 5540 5538 5537 5535 5534 5532 5531 5530 5528 5527 5526 5526 5525 5524 5523 5522 5521 5521 5521 5520 5521 5523 5521 5520 5521 5520 5518 5518 5519 5522 5525 5527
5572 5569 5567 5565 5563 5561 5559 5558 5557 5554 5552 5550 5548 5546 5544 5542 5540 5537 5535 5533 5531 5529 5527 5525 5524 5523 5521 5520 5518 5517 5516 5515 5514 5513 5512 5511 5509 5509 5509 5508 5510 5511 5510 5510 5511 5509 5507 5507 5506 5507 5509 5511